Regional Weather Roundup
Issued by NWS Little Rock, AR

Home | Current Version | Previous Version | Graphics & Text | Print | Product List | Glossary On
Versions: 1 2 3 4 5 6 7 8 9 10 11 12 13 14 15 16 17 18 19 20 21 22 23 24 25 26 27 28 29 30 31 32 33 34 35 36 37 38 39 40 41 42 43 44 45 46 47 48 49 50
000
ASUS44 KLZK 211005
RWRLZK

WEATHER ROUNDUP FOR ARKANSAS
NATIONAL WEATHER SERVICE LITTLE ROCK AR
400 AM CST FRI NOV 21 2014

NOTE: "FAIR" INDICATES FEW OR NO CLOUDS BELOW 12,000 FEET WITH NO
SIGNIFICANT WEATHER AND/OR OBSTRUCTIONS TO VISIBILITY.

ARZ001-003-010-029-211100-
NORTHWEST ARKANSAS

CITY           SKY/WX    TMP DP  RH WIND       PRES   REMARKS
FAYETTEVILLE   CLOUDY    42  37  82 CALM      30.16S
FORT SMITH     CLOUDY    49  34  56 E13       30.17S
HARRISON       CLOUDY    39  25  57 SE9       30.22S
BENTONVILLE    CLOUDY    45  32  61 E8        30.17S
ROGERS         CLOUDY    42  31  64 E13       30.17S
SILOAM SPGS    CLOUDY    45  34  65 E8        30.16S
HIGHFILL       CLOUDY    44  35  70 E7        30.16R
$$

ARZ004-005-016-211100-
NORTH CENTRAL ARKANSAS

CITY           SKY/WX    TMP DP  RH WIND       PRES   REMARKS
BATESVILLE     CLOUDY    45  27  49 E6        30.27S
FLIPPIN        CLOUDY    41  23  48 E3        30.25S
MTN HOME       CLOUDY    40  27  59 E5        30.24S
$$

ARZ040-041-211100-
WEST CENTRAL ARKANSAS

CITY           SKY/WX    TMP DP  RH WIND       PRES   REMARKS
MENA           CLOUDY    46  46 100 E3        30.17S
MOUNT IDA      CLOUDY    46  45  96 CALM      30.16S FOG
$$

ARZ009-017-025-026-028-211100-
NORTHEAST ARKANSAS

CITY           SKY/WX    TMP DP  RH WIND       PRES   REMARKS
CORNING        CLOUDY    37  32  81 NE9       30.32S
JONESBORO      CLOUDY    43  31  62 NE7       30.30R
NEWPORT        HAZE      45  31  58 E7        30.29R VSB 1/4
WALNUT RIDGE   CLOUDY    43  28  56 NE10      30.28F
BLYTHEVILLE    CLOUDY    44  31  60 NE8       30.31S
$$

ARZ022-023-033-042-044-211100-
CENTRAL ARKANSAS

CITY           SKY/WX    TMP DP  RH WIND       PRES   REMARKS
LITTLE ROCK    LGT RAIN  42  37  82 E6        30.24S
N LITTLE ROCK    N/A     40  38  93 E8        30.24S
JACKSONVILLE   LGT RAIN  41  35  79 E6        30.23S
SEARCY         LGT RAIN  41  35  79 NE6       30.27S
HOT SPRINGS    CLOUDY    46  44  93 E5        30.21R
RUSSELLVILLE   LGT RAIN  43  35  73 CALM      30.22S
CLINTON        CLOUDY    41  36  81 CALM      30.26F
$$

ARZ036-211100-
EAST ARKANSAS

CITY           SKY/WX    TMP DP  RH WIND       PRES   REMARKS
WEST MEMPHIS   CLOUDY    44  29  55 E6        30.27R
$$

ARZ050-053-066-070-073-211100-
SOUTHWEST ARKANSAS

CITY           SKY/WX    TMP DP  RH WIND       PRES   REMARKS
ARKADELPHIA    CLOUDY    46  46 100 NE3       30.21S
CAMDEN         CLOUDY    52  48  87 CALM      30.20F FOG
TEXARKANA      CLOUDY    52  52 100 E6        30.16R FOG
EL DORADO      LGT RAIN  52  50  93 E3        30.19F
DE QUEEN       CLOUDY    52  49  89 E6        30.15R
$$

ARZ056-057-069-211100-
SOUTHEAST ARKANSAS

CITY           SKY/WX    TMP DP  RH WIND       PRES   REMARKS
PINE BLUFF     CLOUDY    45  42  89 N5        30.23S
STUTTGART      CLOUDY    41  37  87 NE8       30.24F
MONTICELLO     CLOUDY    50  48  93 CALM      30.22R FOG

$$




USA.gov is the U.S. government's official web portal to all federal, state and local government web resources and services.